Flag for Germany Weather past 2 weeks in Weißenfels, Saxony-Anhalt, Germany

Now
42 °F

Overcast.


Feels Like: 36 °F
Forecast: 35 / 43 °F
Wind: 10 mph from Southwest

Location: Leipzig-Schkeuditz

Current Time: Dec 20, 2014 at 4:12:15 AM

Latest Report: Dec 20, 2014 at 3:00 AM


Visibility: 38 mi

Pressure: 30.02 "Hg

Humidity: 78%

Dew point: 35 °F

Location of WeißenfelsLocation

Historic Weather in Weißenfels — Graph

°F

Weißenfels temperature yesterday

Maximum temperature yesterday: 54 °F (at 12:00 AM)
Minimum temperature yesterday: 42 °F (at 11:00 PM)
Average temperature yesterday: 51 °F

Past Weeks' High & Low Weather Summary

 TemperatureHumidityPressure
High54 °F (Dec 19, 12:00 AM)100% (Dec 5, 5:00 AM)30.42 "Hg (Dec 5, 5:00 AM)
Low27 °F (Dec 9, 5:00 AM)63% (Dec 15, 1:00 PM)29.47 "Hg (Dec 12, 7:00 PM)
Average39 °F88%29.97 "Hg
* Reported Dec 5 3:00 AM — Dec 20 3:00 AM, Weißenfels, Weather by CustomWeather, © 2014

Note: Actual official high and low records may vary slightly from our data, if they occured in-between our weather recording intervals... More about our weather records

Advertising

Weißenfels weather history for previous 24 hours

 ConditionsComfort  
Time TempWeatherWind HumidityBarometerVisibility
3:00 AM
Dec 20
42 °FOvercast.10 mph78%30.02 "Hg37 mi
2:00 AM40 °FPassing clouds.9 mph81%30.01 "Hg37 mi
1:00 AM40 °FPassing clouds.8 mph79%30.01 "Hg37 mi
12:00 AM41 °FPassing clouds.8 mph80%30.00 "Hg37 mi
11:00 PM
Dec 19
42 °FOvercast.7 mph80%29.97 "Hg40 mi
9:00 PM45 °FOvercast.3 mph77%29.93 "Hg40 mi
8:00 PM46 °FOvercast.5 mph78%29.89 "Hg43 mi
7:00 PM48 °FOvercast.6 mph78%29.85 "Hg43 mi
6:00 PM46 °FLight rain. Overcast.5 mph90%29.80 "Hg43 mi
5:00 PM47 °FSprinkles. Low clouds.8 mph93%29.82 "Hg5 mi
3:00 PM53 °FOvercast.14 mph78%29.75 "Hg43 mi
2:00 PM52 °FOvercast.13 mph84%29.76 "Hg37 mi
1:00 PM52 °FLight rain. Overcast.12 mph83%29.78 "Hg25 mi
12:00 PM51 °FRain. Low clouds.14 mph89%29.80 "Hg2 mi
11:00 AM54 °FOvercast.13 mph74%29.80 "Hg43 mi
9:00 AM53 °FOvercast.14 mph74%29.81 "Hg43 mi
8:00 AM53 °FOvercast.9 mph74%29.83 "Hg37 mi
7:00 AM53 °FOvercast.12 mph76%29.83 "Hg28 mi
6:00 AM53 °FOvercast.13 mph78%29.84 "Hg28 mi
5:00 AM54 °FOvercast.13 mph79%29.84 "Hg28 mi
Weather by CustomWeather, © 2014

See weather overviewHow to use our weather pages